Terminal Aerodrome Forecast
Issued by NWS Boston, MA

Home | Current Version | Previous Version | Text Only | Print | Product List | Glossary On
Versions: 1 2 3 4 5 6 7 8 9 10 11 12 13 14 15 16 17 18 19 20 21 22 23
000
FTUS41 KBOX 160539
TAFORH
TAF
KORH 160539Z 1606/1706 30012G20KT 2SM -SNPL SCT010 OVC040
     FM160700 31012G22KT 2SM -SN BKN015 OVC030
     FM161000 31012G22KT P6SM SCT150
     FM161700 32015KT P6SM SKC
     FM162100 34009KT P6SM SKC
     FM170000 02005KT P6SM SKC=

USA.gov is the U.S. government's official web portal to all federal, state and local government web resources and services.